Simultaneous Nadir Overpasses (SNOs) Predictions

Prediction of SNOs between AQUA and LANDSAT-8 Satellite Orbit:

Table of predicted SNOs for the next 14.0 days since TLE Epoch: 8/3/2024
Index Date (AQUA) Time (AQUA) Lat,Lon (AQUA) SZA (AQUA ) Date (LANDSAT-8) Time (LANDSAT-8) Lat,Lon (LANDSAT-8) SZA (LANDSAT-8 ) Distance(km) Time Diff (sec)
1 08/06/2024 17:34:36 -73.39, 100.67 123.09 08/06/2024 17:33:29 -73.42, 98.49 123.09 69.18 67
2 08/06/2024 18:24:01 73.54, -91.98 57.06 08/06/2024 18:22:53 73.50, -93.71 57.00 54.48 68
3 08/06/2024 19:13:27 -73.80, 75.09 122.67 08/06/2024 19:12:15 -73.79, 74.55 122.70 16.87 72
4 08/06/2024 20:02:51 73.90,-117.46 57.43 08/06/2024 20:01:38 73.92,-117.52 57.45 2.73 73
5 08/06/2024 20:52:13 -73.95, 50.07 122.51 08/06/2024 20:51:05 -73.94, 50.18 122.52 3.52 68
6 08/06/2024 21:41:35 73.94,-142.24 57.50 08/06/2024 21:40:31 73.92,-142.24 57.47 3.09 64
7 08/06/2024 22:30:56 -73.95, 25.41 122.49 08/06/2024 22:29:58 -73.94, 25.46 122.50 1.82 58
8 08/06/2024 23:20:18 73.94,-166.91 57.51 08/06/2024 23:19:24 73.92,-166.95 57.49 2.81 54
9 08/07/2024 00:09:39 -73.95, 0.74 122.48 08/07/2024 00:08:51 -73.94, 0.74 122.48 0.20 48
10 08/07/2024 00:59:01 73.94, 168.42 57.53 08/07/2024 00:58:17 73.92, 168.33 57.51 3.47 44
11 08/07/2024 01:48:22 -73.94, -23.93 122.46 08/07/2024 01:47:44 -73.94, -23.98 122.46 1.57 38
12 08/07/2024 02:37:45 73.98, 143.63 57.59 08/07/2024 02:37:09 73.97, 143.72 57.58 3.07 36
13 08/07/2024 03:27:05 -73.94, -48.60 122.45 08/07/2024 03:26:37 -73.94, -48.70 122.44 3.25 28
14 08/07/2024 04:16:28 73.98, 118.97 57.61 08/07/2024 04:16:02 73.97, 119.00 57.60 1.42 26
15 08/07/2024 05:05:49 -73.98, -73.38 122.38 08/07/2024 05:05:29 -74.00, -73.30 122.37 2.96 20
16 08/07/2024 05:55:11 73.97, 94.30 57.62 08/07/2024 05:54:55 73.97, 94.28 57.62 0.48 16
17 08/07/2024 06:44:32 -73.98, -98.05 122.37 08/07/2024 06:44:22 -74.00, -98.02 122.35 2.30 10
18 08/07/2024 07:33:54 73.97, 69.63 57.64 08/07/2024 07:33:48 73.97, 69.56 57.64 2.00 6
19 08/07/2024 08:23:15 -73.97,-122.72 122.35 08/07/2024 08:23:15 -74.00,-122.74 122.33 2.71 0
20 08/07/2024 09:12:37 73.97, 44.96 57.65 08/07/2024 09:12:41 73.97, 44.85 57.66 3.64 4
21 08/07/2024 10:01:59 -74.02,-147.51 122.28 08/07/2024 10:02:08 -74.00,-147.46 122.31 2.93 9
22 08/07/2024 10:51:21 74.01, 20.17 57.72 08/07/2024 10:51:33 74.02, 20.24 57.73 2.51 12
23 08/07/2024 11:40:42 -74.02,-172.17 122.27 08/07/2024 11:41:01 -74.00,-172.18 122.29 2.02 19
24 08/07/2024 12:30:04 74.01, -4.50 57.74 08/07/2024 12:30:26 74.02, -4.48 57.75 1.91 22
25 08/07/2024 13:19:25 -74.01, 163.16 122.25 08/07/2024 13:19:54 -74.00, 163.10 122.27 2.26 29
26 08/07/2024 14:08:47 74.00, -29.16 57.75 08/07/2024 14:09:19 74.03, -29.20 57.77 2.52 32
27 08/07/2024 14:58:08 -74.01, 138.49 122.24 08/07/2024 14:58:47 -74.00, 138.38 122.25 3.40 39
28 08/07/2024 15:47:31 74.05, -53.95 57.82 08/07/2024 15:48:12 74.03, -53.92 57.79 3.14 41
29 08/07/2024 16:36:52 -74.06, 113.70 122.17 08/07/2024 16:37:39 -74.05, 113.78 122.17 2.47 47
30 08/07/2024 17:26:14 74.05, -78.62 57.83 08/07/2024 17:27:05 74.03, -78.64 57.81 2.51 51
31 08/07/2024 18:15:35 -74.05, 89.03 122.16 08/07/2024 18:16:32 -74.05, 89.06 122.15 0.87 57
32 08/07/2024 19:04:57 74.04,-103.29 57.85 08/07/2024 19:05:58 74.03,-103.36 57.83 2.85 61
33 08/07/2024 19:54:18 -74.05, 64.36 122.14 08/07/2024 19:55:25 -74.05, 64.34 122.13 0.83 67
34 08/07/2024 20:43:40 74.04,-127.96 57.86 08/07/2024 20:44:51 74.03,-128.08 57.85 3.90 71
35 08/07/2024 21:33:05 -74.25, 39.21 121.92 08/07/2024 21:34:15 -74.21, 39.98 121.96 23.63 70
36 08/07/2024 22:22:29 74.35,-153.36 58.19 08/07/2024 22:23:38 74.34,-152.08 58.19 38.55 69
37 08/07/2024 23:11:55 -74.60, 13.67 121.55 08/07/2024 23:13:01 -74.57, 16.11 121.57 72.43 66
38 08/08/2024 00:01:20 74.75,-179.05 58.61 08/08/2024 00:02:24 74.69,-175.92 58.58 91.77 64



Historial Predications of SNOs between AQUA and LANDSAT-8
